Time,TemperatureF,DewpointF,PressureIn,WindDirection,WindDirectionDegrees,WindSpeedMPH,WindSpeedGustMPH,Humidity,HourlyPrecipIn,Conditions,Clouds,dailyrainin,SoftwareType,DateUTC
2013-04-15 00:09:00,42.1,34.1,29.98,ENE,67,0.0,-999.0,73,-99.99,,,0.00,Acu-Link.com,2013-04-15 04:09:00,
2013-04-15 00:24:00,41.9,34.2,29.99,NE,45,0.0,-999.0,74,-99.99,,,0.00,Acu-Link.com,2013-04-15 04:24:00,
2013-04-15 00:39:00,41.4,33.7,29.99,East,90,0.0,-999.0,74,-99.99,,,0.00,Acu-Link.com,2013-04-15 04:39:00,
2013-04-15 00:54:00,41.2,33.6,29.99,ENE,67,2.2,-999.0,74,-99.99,,,0.00,Acu-Link.com,2013-04-15 04:54:00,
2013-04-15 01:09:00,41.2,34.2,29.98,East,90,0.0,-999.0,76,-99.99,,,0.00,Acu-Link.com,2013-04-15 05:09:00,
2013-04-15 01:24:00,40.8,33.8,29.98,ESE,112,0.0,-999.0,76,-99.99,,,0.00,Acu-Link.com,2013-04-15 05:24:00,
2013-04-15 01:39:00,40.5,33.9,29.98,NE,45,0.0,-999.0,77,-99.99,,,0.00,Acu-Link.com,2013-04-15 05:39:00,
2013-04-15 01:54:00,40.3,34.3,29.99,ENE,67,0.0,-999.0,79,-99.99,,,0.00,Acu-Link.com,2013-04-15 05:54:00,
2013-04-15 02:10:00,40.3,34.3,29.99,NE,45,0.0,-999.0,79,-99.99,,,0.00,Acu-Link.com,2013-04-15 06:10:00,
2013-04-15 02:25:00,40.1,34.7,30.00,SSE,157,0.0,-999.0,81,-99.99,,,0.00,Acu-Link.com,2013-04-15 06:25:00,
2013-04-15 02:40:00,40.3,34.6,30.00,South,180,0.0,-999.0,80,-99.99,,,0.00,Acu-Link.com,2013-04-15 06:40:00,
2013-04-15 02:55:00,40.3,34.9,29.99,WNW,292,0.0,-999.0,81,-99.99,,,0.00,Acu-Link.com,2013-04-15 06:55:00,
2013-04-15 03:56:00,40.8,35.7,30.00,SSE,157,0.0,-999.0,82,-99.99,,,0.00,Acu-Link.com,2013-04-15 07:56:00,
2013-04-15 04:41:00,41.0,35.3,30.01,WNW,292,0.0,-999.0,80,-99.99,,,0.00,Acu-Link.com,2013-04-15 08:41:00,
2013-04-15 04:56:00,41.2,36.1,30.02,NE,45,2.7,-999.0,82,-99.99,,,0.00,Acu-Link.com,2013-04-15 08:56:00,
2013-04-15 05:12:00,41.0,35.9,30.02,East,90,0.0,-999.0,82,-99.99,,,0.00,Acu-Link.com,2013-04-15 09:12:00,
2013-04-15 05:27:00,41.0,33.4,30.04,ESE,112,0.0,-999.0,74,-99.99,,,0.00,Acu-Link.com,2013-04-15 09:27:00,
2013-04-15 05:42:00,41.2,34.5,30.04,WSW,247,1.7,-999.0,77,-99.99,,,0.00,Acu-Link.com,2013-04-15 09:42:00,
2013-04-15 05:57:00,41.7,33.0,30.05,ESE,112,0.0,-999.0,71,-99.99,,,0.00,Acu-Link.com,2013-04-15 09:57:00,
2013-04-15 06:12:00,42.1,33.4,30.05,ESE,112,1.7,-999.0,71,-99.99,,,0.00,Acu-Link.com,2013-04-15 10:12:00,
2013-04-15 06:27:00,41.9,33.2,30.05,SSE,157,1.1,-999.0,71,-99.99,,,0.00,Acu-Link.com,2013-04-15 10:27:00,
2013-04-15 06:42:00,41.5,32.8,30.06,ESE,112,0.0,-999.0,71,-99.99,,,0.00,Acu-Link.com,2013-04-15 10:42:00,
2013-04-15 06:58:00,41.7,33.0,30.07,ESE,112,2.2,-999.0,71,-99.99,,,0.00,Acu-Link.com,2013-04-15 10:58:00,
2013-04-15 07:13:00,41.9,32.5,30.07,SW,225,1.7,-999.0,69,-99.99,,,0.00,Acu-Link.com,2013-04-15 11:13:00,
2013-04-15 07:28:00,43.0,33.9,30.07,ESE,112,0.0,-999.0,70,-99.99,,,0.00,Acu-Link.com,2013-04-15 11:28:00,
2013-04-15 07:43:00,44.2,33.9,30.08,SSE,157,0.0,-999.0,67,-99.99,,,0.00,Acu-Link.com,2013-04-15 11:43:00,
2013-04-15 07:58:00,46.0,34.5,30.08,West,270,0.0,-999.0,64,-99.99,,,0.00,Acu-Link.com,2013-04-15 11:58:00,
2013-04-15 08:28:00,48.6,33.2,30.08,SSE,157,2.2,-999.0,55,-99.99,,,0.00,Acu-Link.com,2013-04-15 12:28:00,
2013-04-15 08:43:00,48.9,33.5,30.08,ESE,112,2.7,-999.0,55,-99.99,,,0.00,Acu-Link.com,2013-04-15 12:43:00,
2013-04-15 09:14:00,50.4,35.7,30.08,SE,135,4.2,-999.0,57,-99.99,,,0.00,Acu-Link.com,2013-04-15 13:14:00,
2013-04-15 09:29:00,50.4,34.8,30.08,SSE,157,2.2,-999.0,55,-99.99,,,0.00,Acu-Link.com,2013-04-15 13:29:00,
2013-04-15 09:44:00,51.6,36.4,30.08,NNE,22,3.2,-999.0,56,-99.99,,,0.00,Acu-Link.com,2013-04-15 13:44:00,
2013-04-15 09:59:00,52.9,36.7,30.08,SE,135,3.2,-999.0,54,-99.99,,,0.00,Acu-Link.com,2013-04-15 13:59:00,
2013-04-15 10:14:00,53.8,37.5,30.07,ENE,67,4.2,-999.0,54,-99.99,,,0.00,Acu-Link.com,2013-04-15 14:14:00,
2013-04-15 10:29:00,54.9,37.6,30.07,SE,135,2.7,-999.0,52,-99.99,,,0.00,Acu-Link.com,2013-04-15 14:29:00,
2013-04-15 10:59:00,55.9,39.0,30.06,SSE,157,4.2,-999.0,53,-99.99,,,0.00,Acu-Link.com,2013-04-15 14:59:00,
2013-04-15 11:14:00,56.8,39.4,30.06,East,90,4.2,-999.0,52,-99.99,,,0.00,Acu-Link.com,2013-04-15 15:14:00,
2013-04-15 11:30:00,58.5,41.4,30.05,SSE,157,3.2,-999.0,53,-99.99,,,0.00,Acu-Link.com,2013-04-15 15:30:00,
2013-04-15 11:45:00,57.9,40.9,30.04,SSE,157,4.7,-999.0,53,-99.99,,,0.00,Acu-Link.com,2013-04-15 15:45:00,
2013-04-15 12:00:00,57.2,40.7,30.05,SSE,157,4.7,-999.0,54,-99.99,,,0.00,Acu-Link.com,2013-04-15 16:00:00,
2013-04-15 12:15:00,57.7,41.2,30.04,SSE,157,0.0,-999.0,54,-99.99,,,0.00,Acu-Link.com,2013-04-15 16:15:00,
2013-04-15 12:30:00,60.6,42.4,30.04,SSE,157,1.7,-999.0,51,-99.99,,,0.00,Acu-Link.com,2013-04-15 16:30:00,
2013-04-15 13:00:00,64.2,44.1,30.03,South,180,3.2,-999.0,48,-99.99,,,0.00,Acu-Link.com,2013-04-15 17:00:00,
2013-04-15 13:15:00,63.1,44.2,30.02,ESE,112,3.7,-999.0,50,-99.99,,,0.00,Acu-Link.com,2013-04-15 17:15:00,
2013-04-15 13:30:00,63.0,44.1,30.01,SSE,157,4.2,-999.0,50,-99.99,,,0.00,Acu-Link.com,2013-04-15 17:30:00,
2013-04-15 13:46:00,63.5,44.5,30.02,East,90,3.7,-999.0,50,-99.99,,,0.00,Acu-Link.com,2013-04-15 17:46:00,
2013-04-15 14:01:00,63.0,44.1,30.01,ESE,112,3.7,-999.0,50,-99.99,,,0.00,Acu-Link.com,2013-04-15 18:01:00,
2013-04-15 14:16:00,63.5,45.0,30.01,SE,135,1.7,-999.0,51,-99.99,,,0.00,Acu-Link.com,2013-04-15 18:16:00,
2013-04-15 14:31:00,65.1,46.0,30.01,NE,45,3.7,-999.0,50,-99.99,,,0.00,Acu-Link.com,2013-04-15 18:31:00,
2013-04-15 14:46:00,65.8,45.6,30.00,SSE,157,2.7,-999.0,48,-99.99,,,0.00,Acu-Link.com,2013-04-15 18:46:00,
2013-04-15 15:01:00,66.6,46.3,30.00,SSE,157,2.7,-999.0,48,-99.99,,,0.00,Acu-Link.com,2013-04-15 19:01:00,
2013-04-15 15:17:00,66.2,45.9,30.00,ESE,112,4.7,-999.0,48,-99.99,,,0.00,Acu-Link.com,2013-04-15 19:17:00,
2013-04-15 15:32:00,65.1,46.0,29.99,SE,135,3.7,-999.0,50,-99.99,,,0.00,Acu-Link.com,2013-04-15 19:32:00,
2013-04-15 16:02:00,64.8,45.7,29.99,South,180,6.3,-999.0,50,-99.99,,,0.00,Acu-Link.com,2013-04-15 20:02:00,
2013-04-15 16:17:00,64.6,46.1,29.98,SE,135,4.7,-999.0,51,-99.99,,,0.00,Acu-Link.com,2013-04-15 20:17:00,
2013-04-15 16:32:00,64.9,45.8,29.99,SSE,157,5.8,-999.0,50,-99.99,,,0.00,Acu-Link.com,2013-04-15 20:32:00,
2013-04-15 16:47:00,64.6,46.1,29.99,SSE,157,8.9,-999.0,51,-99.99,,,0.00,Acu-Link.com,2013-04-15 20:47:00,
2013-04-15 17:02:00,64.0,46.0,29.99,SE,135,6.3,-999.0,52,-99.99,,,0.00,Acu-Link.com,2013-04-15 21:02:00,
2013-04-15 17:17:00,63.9,46.4,29.99,SSE,157,4.7,-999.0,53,-99.99,,,0.00,Acu-Link.com,2013-04-15 21:17:00,
2013-04-15 17:33:00,64.0,46.5,29.99,WSW,247,6.3,-999.0,53,-99.99,,,0.00,Acu-Link.com,2013-04-15 21:33:00,
2013-04-15 17:48:00,64.0,46.5,29.99,South,180,5.8,-999.0,53,-99.99,,,0.00,Acu-Link.com,2013-04-15 21:48:00,
2013-04-15 18:03:00,63.3,46.4,29.99,West,270,6.8,-999.0,54,-99.99,,,0.00,Acu-Link.com,2013-04-15 22:03:00,
2013-04-15 18:18:00,62.6,46.2,29.99,SE,135,6.3,-999.0,55,-99.99,,,0.00,Acu-Link.com,2013-04-15 22:18:00,
2013-04-15 18:33:00,62.4,46.0,30.00,East,90,5.3,-999.0,55,-99.99,,,0.00,Acu-Link.com,2013-04-15 22:33:00,
2013-04-15 18:48:00,61.9,45.6,30.00,SSE,157,3.2,-999.0,55,-99.99,,,0.00,Acu-Link.com,2013-04-15 22:48:00,
2013-04-15 19:03:00,61.3,45.9,29.99,SSE,157,3.2,-999.0,57,-99.99,,,0.00,Acu-Link.com,2013-04-15 23:03:00,
2013-04-15 19:18:00,60.6,45.7,29.99,ESE,112,0.0,-999.0,58,-99.99,,,0.00,Acu-Link.com,2013-04-15 23:18:00,
2013-04-15 19:33:00,60.3,45.9,29.98,East,90,0.0,-999.0,59,-99.99,,,0.00,Acu-Link.com,2013-04-15 23:33:00,
2013-04-15 19:49:00,60.3,45.9,29.99,South,180,4.7,-999.0,59,-99.99,,,0.00,Acu-Link.com,2013-04-15 23:49:00,
2013-04-15 20:04:00,59.9,46.4,30.00,SSE,157,2.2,-999.0,61,-99.99,,,0.00,Acu-Link.com,2013-04-16 00:04:00,
2013-04-15 20:19:00,59.7,45.8,30.00,SSE,157,3.7,-999.0,60,-99.99,,,0.00,Acu-Link.com,2013-04-16 00:19:00,
2013-04-15 20:34:00,59.5,45.6,30.00,SE,135,2.2,-999.0,60,-99.99,,,0.00,Acu-Link.com,2013-04-16 00:34:00,
2013-04-15 20:49:00,59.2,45.3,30.01,ESE,112,4.2,-999.0,60,-99.99,,,0.00,Acu-Link.com,2013-04-16 00:49:00,
2013-04-15 21:04:00,59.2,44.9,30.02,ESE,112,4.7,-999.0,59,-99.99,,,0.00,Acu-Link.com,2013-04-16 01:04:00,
2013-04-15 21:19:00,58.5,45.1,30.02,SSE,157,3.2,-999.0,61,-99.99,,,0.00,Acu-Link.com,2013-04-16 01:19:00,
2013-04-15 21:34:00,58.3,44.9,30.02,South,180,2.7,-999.0,61,-99.99,,,0.00,Acu-Link.com,2013-04-16 01:34:00,
2013-04-15 21:49:00,57.6,45.1,30.03,SE,135,4.7,-999.0,63,-99.99,,,0.00,Acu-Link.com,2013-04-16 01:49:00,
2013-04-15 22:05:00,57.7,45.2,30.03,ESE,112,6.3,-999.0,63,-99.99,,,0.00,Acu-Link.com,2013-04-16 02:05:00,
2013-04-15 22:20:00,57.2,45.5,30.03,SE,135,2.7,-999.0,65,-99.99,,,0.00,Acu-Link.com,2013-04-16 02:20:00,
2013-04-15 22:35:00,57.2,45.5,30.03,SE,135,4.2,-999.0,65,-99.99,,,0.00,Acu-Link.com,2013-04-16 02:35:00,
2013-04-15 22:50:00,57.2,45.9,30.04,SSE,157,4.7,-999.0,66,-99.99,,,0.00,Acu-Link.com,2013-04-16 02:50:00,
2013-04-15 23:05:00,57.0,46.2,30.03,ESE,112,4.7,-999.0,67,-99.99,,,0.00,Acu-Link.com,2013-04-16 03:05:00,
2013-04-15 23:20:00,57.0,46.2,30.04,South,180,3.7,-999.0,67,-99.99,,,0.00,Acu-Link.com,2013-04-16 03:20:00,
2013-04-15 23:36:00,56.8,46.4,30.04,ESE,112,7.8,-999.0,68,-99.99,,,0.00,Acu-Link.com,2013-04-16 03:36:00,
2013-04-15 23:51:00,56.7,46.3,30.05,ESE,112,3.2,-999.0,68,-99.99,,,0.00,Acu-Link.com,2013-04-16 03:51:00,